EW2566 Weather Reports


Display with metric or nautical units.
time (UTC)temp
F
wind
direction
speed
MPH
gust
MPH
rain 1hr
in
rain 24hr
in
rain mn
in
humidity
%
barometer
mb
20181016083019 55 206 4.0 8.0 0.00 0.00 0.00 93 1010.3
20181016082026 55 183 2.0 5.0 0.00 0.00 0.00 93 1010.4
20181016081033 54 135 4.0 4.0 0.00 0.00 0.00 93 1010.3
20181016080045 54 193 2.0 6.0 0.00 0.00 0.00 93 1010.6
20181016075030 54 183 1.0 3.0 0.00 0.00 0.00 93 1010.5
20181016074031 54 215 2.0 3.0 0.00 0.00 0.00 93 1010.5
20181016073019 53 179 2.0 4.0 0.00 0.00 0.00 94 1010.6
20181016072037 53 193 2.0 4.0 0.00 0.00 0.00 94 1010.5
20181016071030 53 182 3.0 4.0 0.00 0.00 0.00 94 1010.3
20181016070041 53 182 3.0 6.0 0.00 0.00 0.00 94 1010.1
20181016065027 53 163 3.0 4.0 0.00 0.00 0.00 94 1010.1
20181016064030 53 190 5.0 8.0 0.00 0.00 0.00 93 1010.0
20181016063019 53 196 4.0 7.0 0.00 0.00 0.00 93 1010.1
20181016062030 53 190 4.0 6.0 0.00 0.00 0.00 93 1010.0
20181016061018 53 181 5.0 6.0 0.00 0.00 0.00 93 1009.8
20181016060032 53 163 3.0 6.0 0.00 0.00 0.00 93 1009.9
20181016055020 53 164 3.0 6.0 0.00 0.00 0.00 93 1009.9
20181016054034 53 174 4.0 8.0 0.00 0.00 0.00 92 1009.8
20181016053022 53 172 4.0 6.0 0.00 0.00 0.00 92 1009.9
20181016052034 53 168 4.0 7.0 0.00 0.00 0.00 92 1009.8
20181016051025 53 184 4.0 6.0 0.00 0.00 0.00 92 1010.1
20181016050027 53 166 2.0 4.0 0.00 0.00 0.00 92 1010.1
20181016045025 53 178 3.0 4.0 0.00 0.00 0.00 92 1010.0
20181016044027 53 185 2.0 4.0 0.00 0.00 0.00 92 1010.0
20181016043025 53 169 2.0 3.0 0.00 0.00 0.00 92 1010.1
20181016042024 52 219 1.0 3.0 0.00 0.00 0.00 92 1010.1
20181016041028 52 185 3.0 5.0 0.00 0.00 0.00 92 1010.1
20181016040024 52 167 2.0 5.0 0.00 0.00 0.00 92 1010.1
20181016035026 52 170 3.0 6.0 0.00 0.00 0.00 92 1010.0
20181016034029 52 192 2.0 6.0 0.00 0.00 0.00 92 1009.9
20181016033017 52 170 2.0 3.0 0.00 0.00 0.00 92 1010.0
20181016032029 52 168 2.0 4.0 0.00 0.00 0.00 92 1010.1
20181016031021 52 175 3.0 7.0 0.00 0.00 0.00 92 1009.8
20181016030033 52 177 2.0 4.0 0.00 0.00 0.00 91 1010.1
20181016025025 52 194 2.0 4.0 0.00 0.00 0.00 91 1010.1
20181016024027 52 187 2.0 4.0 0.00 0.00 0.00 91 1010.2
20181016023016 52 190 2.0 4.0 0.00 0.00 0.00 91 1010.0
20181016022030 52 194 4.0 6.0 0.00 0.00 0.00 91 1010.0
20181016021017 52 140 2.0 4.0 0.00 0.00 0.00 90 1010.0
20181016020032 52 179 2.0 6.0 0.00 0.00 0.00 90 1010.2
20181016015025 52 201 3.0 7.0 0.00 0.00 0.00 90 1010.4
20181016014026 52 223 3.0 4.0 0.00 0.00 0.00 90 1010.2
20181016013026 52 169 2.0 3.0 0.00 0.00 0.00 89 1010.4
20181016012029 52 173 3.0 5.0 0.00 0.00 0.00 89 1010.6
20181016011016 52 183 3.0 4.0 0.00 0.00 0.00 89 1010.7
20181016010032 52 164 2.0 4.0 0.00 0.00 0.00 89 1010.5
20181016005025 52 175 3.0 5.0 0.00 0.00 0.00 89 1010.8
20181016004027 52 175 2.0 6.0 0.00 0.00 0.00 88 1010.8
20181016003025 52 177 1.0 3.0 0.00 0.00 0.00 88 1011.0
20181016002029 52 178 1.0 2.0 0.00 0.00 0.00 88 1010.9
20181016001018 52 225 1.0 2.0 0.00 0.00 0.00 87 1011.1
20181016000029 52 181 0.0 2.0 0.00 0.00 0.00 87 1011.3
20181015235016 52 171 1.0 3.0 0.00 0.00 0.00 87 1011.4
20181015234032 52 130 1.0 2.0 0.00 0.00 0.00 87 1011.2
20181015233026 52 173 1.0 3.0 0.00 0.00 0.00 87 1011.4
20181015232037 52 182 2.0 4.0 0.00 0.00 0.00 87 1011.4
20181015231028 52 193 1.0 4.0 0.00 0.00 0.00 86 1011.4
20181015230111 52 179 1.0 2.0 0.00 0.00 0.00 86 1011.5
20181015225020 52 174 1.0 2.0 0.00 0.00 0.00 86 1011.4
20181015224029 52 177 1.0 2.0 0.00 0.00 0.00 85 1011.4
20181015223026 52 166 0.0 2.0 0.00 0.00 0.00 85 1011.3
20181015222032 52 183 1.0 2.0 0.00 0.00 0.00 85 1011.5
20181015221025 52 181 0.0 1.0 0.00 0.00 0.00 84 1011.4
20181015220032 52 170 1.0 2.0 0.00 0.00 0.00 84 1011.5
20181015215027 52 122 1.0 2.0 0.00 0.00 0.00 84 1011.6
20181015214035 52 131 1.0 4.0 0.00 0.00 0.00 85 1011.5
20181015213026 52 201 1.0 3.0 0.00 0.00 0.00 85 1011.4
20181015212026 52 168 0.0 2.0 0.00 0.00 0.00 85 1011.6
20181015211025 52 124 0.0 2.0 0.00 0.00 0.00 85 1011.6
20181015210029 52 90 0.0 1.0 0.00 0.00 0.00 85 1011.8
20181015205018 52 181 0.0 2.0 0.00 0.00 0.00 84 1011.9
20181015204032 52 176 1.0 2.0 0.00 0.00 0.00 84 1012.0
20181015203020 52 65 1.0 2.0 0.00 0.00 0.00 84 1012.0
20181015202032 52 130 1.0 2.0 0.00 0.00 0.00 82 1012.0
20181015201025 52 273 1.0 2.0 0.00 0.00 0.00 82 1012.0
20181015200024 52 160 1.0 1.0 0.00 0.00 0.00 82 1011.9
20181015195025 52 246 1.0 3.0 0.00 0.00 0.00 82 1012.0
20181015194029 52 151 1.0 2.0 0.00 0.00 0.00 83 1011.8
20181015193018 52 175 0.0 2.0 0.00 0.00 0.00 84 1011.9
20181015192029 52 188 1.0 2.0 0.00 0.00 0.00 84 1012.0
20181015191020 52 146 1.0 4.0 0.00 0.00 0.00 84 1011.7
20181015190032 52 135 1.0 3.0 0.00 0.00 0.00 84 1011.6
20181015185025 52 85 1.0 2.0 0.00 0.00 0.00 84 1011.8
20181015184026 52 118 1.0 4.0 0.00 0.00 0.00 83 1011.7
20181015183025 53 165 2.0 2.0 0.00 0.00 0.00 82 1011.7
20181015182029 53 144 2.0 4.0 0.00 0.00 0.00 81 1011.5
20181015181022 53 155 2.0 3.0 0.00 0.00 0.00 80 1011.6
20181015180030 53 121 2.0 4.0 0.00 0.00 0.00 80 1011.6
20181015175026 53 80 1.0 4.0 0.00 0.00 0.00 79 1011.6
20181015174030 53 130 1.0 3.0 0.00 0.00 0.00 79 1011.6
20181015173023 53 141 2.0 4.0 0.00 0.00 0.00 79 1011.5
20181015172029 54 120 1.0 2.0 0.00 0.00 0.00 78 1011.4
20181015171020 54 126 2.0 4.0 0.00 0.00 0.00 78 1011.3
20181015170036 54 141 2.0 4.0 0.00 0.00 0.00 78 1011.3
20181015165025 54 125 2.0 3.0 0.00 0.00 0.00 77 1011.2
20181015164032 54 95 2.0 4.0 0.00 0.00 0.00 77 1010.9
20181015163021 54 129 2.0 5.0 0.00 0.00 0.00 76 1010.9
20181015162031 54 99 3.0 5.0 0.00 0.00 0.00 76 1010.8
20181015161022 55 68 3.0 4.0 0.00 0.00 0.00 76 1010.8
20181015160024 55 121 2.0 4.0 0.00 0.00 0.00 75 1010.9
20181015155029 55 103 2.0 4.0 0.00 0.00 0.00 76 1010.9
20181015154024 55 117 1.0 3.0 0.00 0.00 0.00 78 1011.0
20181015153027 55 139 2.0 3.0 0.00 0.00 0.00 78 1010.8
20181015152034 55 95 2.0 4.0 0.00 0.00 0.00 78 1010.8
20181015151022 55 165 2.0 3.0 0.00 0.00 0.00 78 1010.8
20181015150028 55 139 2.0 4.0 0.00 0.00 0.00 79 1010.8
20181015145029 55 115 1.0 3.0 0.00 0.00 0.00 80 1010.8
20181015144036 55 91 2.0 3.0 0.00 0.00 0.00 80 1010.6
20181015143028 55 116 2.0 4.0 0.00 0.00 0.00 79 1010.8
20181015142035 55 91 2.0 4.0 0.00 0.00 0.00 78 1010.7
20181015141019 55 48 3.0 4.0 0.00 0.00 0.00 78 1010.7
20181015140036 55 45 2.0 4.0 0.00 0.00 0.00 77 1010.7
20181015135031 54 48 3.0 4.0 0.00 0.00 0.00 75 1010.6
20181015134033 54 359 3.0 4.0 0.00 0.00 0.00 75 1010.6
20181015133024 55 9 3.0 4.0 0.00 0.00 0.00 74 1010.7
20181015132032 55 67 2.0 4.0 0.00 0.00 0.00 74 1010.6
20181015131021 55 89 2.0 2.0 0.00 0.00 0.00 73 1010.3
20181015130032 55 13 2.0 2.0 0.00 0.00 0.00 74 1010.5
20181015125022 55 355 3.0 3.0 0.00 0.00 0.00 73 1010.5
20181015124025 55 6 3.0 4.0 0.00 0.00 0.00 73 1010.2
20181015123029 55 40 2.0 4.0 0.00 0.00 0.00 73 1010.2
20181015122024 55 100 2.0 2.0 0.00 0.00 0.00 73 1010.3
20181015121031 55 49 3.0 3.0 0.00 0.01 0.00 73 1010.2
20181015120035 55 42 3.0 5.0 0.00 0.01 0.00 72 1010.3
20181015115024 55 27 2.0 4.0 0.00 0.18 0.00 73 1010.3
20181015114037 55 55 2.0 4.0 0.00 0.18 0.00 73 1010.5
20181015113032 55 66 3.0 4.0 0.00 0.18 0.00 73 1010.2
20181015112035 55 68 3.0 4.0 0.00 0.18 0.00 73 1010.4
20181015111028 55 107 3.0 4.0 0.00 0.18 0.00 73 1010.4
20181015110032 54 129 2.0 2.0 0.00 0.18 0.00 73 1010.1
20181015105031 55 55 2.0 3.0 0.00 0.18 0.00 74 1010.1
20181015104031 55 126 2.0 4.0 0.00 0.18 0.00 76 1010.1
20181015103023 53 104 3.0 4.0 0.00 0.18 0.00 80 1009.7
20181015102029 53 73 2.0 4.0 0.00 0.18 0.00 80 1010.0
20181015101020 52 48 2.0 4.0 0.00 0.18 0.00 81 1009.9
20181015100024 51 54 2.0 4.0 0.00 0.18 0.00 82 1010.2
20181015095025 51 59 2.0 3.0 0.00 0.18 0.00 82 1010.2
20181015094031 51 28 3.0 4.0 0.00 0.18 0.00 83 1010.1
20181015093024 50 47 4.0 4.0 0.00 0.18 0.00 83 1010.2
20181015092035 50 69 3.0 5.0 0.00 0.18 0.00 83 1010.3
20181015091029 50 7 3.0 3.0 0.00 0.18 0.00 84 1010.3
20181015090036 50 172 3.0 3.0 0.00 0.18 0.00 85 1010.2
20181015085029 49 133 2.0 4.0 0.00 0.18 0.00 85 1010.4
20181015084033 49 1 3.0 4.0 0.00 0.18 0.00 86 1010.2